Overview Statistics Trail Chart Weather Telemetry Raw packets
 

This is the latest recevied weather packets stored in our database for station/object PU5FJO-13. If no packets are shown the sender has not sent any weather packets the latest 10 day(s).

<< 23 24 25 26 27 28 29 >>
Time Temp. Humidity Pressure Rain* Wind** Luminosity Snow
1777472767 19.44° C 85% 1016.4 hPa - - - -
1777472167 19.44° C 82% 1015.9 hPa - - - -
1777471567 19.44° C 84% 1015.9 hPa - - - -
1777470967 19.44° C 84% 1016.8 hPa - - - -
1777470367 19.44° C 84% 1017.3 hPa - - - -
1777469767 19.44° C 84% 1017.4 hPa - - - -
1777469167 18.89° C 86% 1017.1 hPa - - - -
1777468567 18.89° C 84% 1016.5 hPa - - - -
1777467967 18.33° C 86% 1016.9 hPa - - - -
1777467367 18.89° C 86% 1017.2 hPa - - - -
1777466767 18.89° C 87% 1015.2 hPa - - - -
1777466167 18.33° C 86% 1016 hPa - - - -
1777465567 18.33° C 85% 1016.7 hPa - - - -
1777464967 18.33° C 82% 1016.7 hPa - - - -
1777464367 17.22° C 85% 1017 hPa - - - -
1777463767 18.33° C 85% 1016.6 hPa - - - -
1777463167 17.78° C 85% 1016.7 hPa - - - -
1777462567 17.78° C 85% 1016.4 hPa - - - -
1777461967 17.22° C 84% 1016 hPa - - - -
1777461367 17.22° C 84% 1016.7 hPa - - - -
1777460767 17.22° C 85% 1016.1 hPa - - - -
1777460167 16.67° C 87% 1016.5 hPa - - - -
1777459567 16.67° C 86% 1016.3 hPa - - - -
1777458967 16.67° C 87% 1016.4 hPa - - - -
1777458367 16.67° C 88% 1016.2 hPa - - - -

* Rain since midnight (hover to see other rain measurements)
** Current wind speed in m/s (hover to see current wind gust speed)